Location: Roanoke
(37.2710°N, 79.9420°W)
Time: 01:00:14
(UTC-04:00)

Daily predictions for brighter satellites

Satellite Brightness Start Highest point End
(mag) Time Altitude Azimuth Time Altitude Azimuth Time Altitude Azimuth
SL-16 R/B 4.2 00:26:09 24° N 00:26:09 24° N 00:28:37 10° N
Cosmos 2360 Rocket 4.5 00:48:08 19° NNE 00:48:08 19° NNE 00:49:39 10° NNE
ATLAS CENTAUR R/B 4.5 01:31:55 64° WNW 01:33:09 68° NW 01:58:55 10° NE
ATLAS 3B R/B 4.3 01:39:04 30° ENE 01:39:04 30° ENE 01:42:43 10° NE
Cosmos 2278 Rocket 4.4 01:51:24 10° N 01:53:14 20° N 01:53:14 20° N
CZ-3A R/B 4.2 02:26:06 55° NNW 02:26:06 55° NNW 02:30:45 10° NE
Cosmos 2219 Rocket 4.3 02:53:37 20° NNW 02:53:37 20° NNW 02:55:53 10° N
Cosmos 2333 Rocket 4.1 02:57:45 24° NNW 02:57:45 24° NNW 03:00:32 10° N
SL-16 R/B 3.6 03:00:03 34° NNE 03:00:03 34° NNE 03:03:10 10° NNE
Cosmos 2237 Rocket 4.0 03:06:52 24° NNW 03:06:52 24° NNW 03:09:40 10° N
BREEZE-M DEB (TANK) 4.1 03:20:28 77° W 03:20:53 80° NW 03:25:36 10° NE
ATLAS 3B R/B 3.8 03:26:18 37° NW 03:26:27 37° NW 03:33:15 10° NNE
Resurs 1-4 Rocket 3.3 03:28:01 10° NNE 03:32:24 36° E 03:32:24 36° E
Cosmos 1603 4.1 03:40:49 59° NNE 03:40:49 59° NNE 03:45:25 10° NNE
CZ-4C R/B 2.9 03:41:23 47° N 03:41:23 47° N 03:45:56 10° NNE
ATLAS 5 CENTAUR R/B 4.1 03:45:51 15° ESE 03:46:08 15° ESE 03:48:58 10° ENE
ARIANE 5 R/B 3.1 03:41:33 10° NNE 03:45:54 56° NE 03:45:54 56° NE
Okean O Rocket 3.9 03:53:55 10° NE 03:57:03 19° E 03:58:24 16° ESE
SL-16 R/B 2.4 04:03:00 61° SSE 04:04:10 84° ENE 04:10:22 10° NNW
CZ-3 R/B 4.5 03:05:02 10° W 04:11:43 65° SSW 04:25:15 10° ESE
Cosmos 1943 3.3 04:12:12 61° SE 04:12:50 67° ESE 04:18:27 10° NNE
USA 234 3.7 04:06:54 10° NE 04:13:09 49° NW 04:14:35 43° WNW
Cosmos 2251 Rocket 3.4 04:14:04 85° E 04:14:04 85° E 04:19:17 10° NNE
S3M 4.4 04:15:52 47° WNW 04:15:52 47° WNW 04:21:29 10° N
SeaSat 1 3.4 04:12:13 10° SE 04:16:54 46° ENE 04:21:37 10° NNW
UNK 4.3 04:19:52 49° NNW 04:19:52 49° NNW 04:23:18 10° NNW
Meteor 2-10 4.4 04:20:38 44° SSE 04:22:17 65° E 04:27:44 10° NNE
Cosmos 158 Rocket 4.5 04:24:01 45° NW 04:24:01 45° NW 04:28:16 10° N
Cosmos 1110 Rocket 4.0 04:21:03 10° NNW 04:26:17 80° ENE 04:28:45 32° SSE
Cosmos 2369 Rocket 2.7 04:21:34 10° NNW 04:27:07 58° ENE 04:32:38 10° SE
Cosmos 1726 4.1 04:29:41 21° NNW 04:29:41 21° NNW 04:31:12 10° N
CZ-2D R/B 2.0 04:22:54 10° N 04:28:09 66° WNW 04:28:18 65° W
CZ-4B R/B 4.4 04:23:25 10° NNE 04:28:15 35° E 04:31:58 16° SSE
Cosmos 2242 Rocket 3.6 04:28:23 78° SE 04:28:34 80° E 04:33:09 10° N
NOSS 3-2 (A) 3.7 04:28:40 49° W 04:29:40 54° NW 04:36:07 10° NNE
CZ-2D R/B 3.6 04:26:52 10° NNE 04:31:18 73° E 04:31:34 70° SE
BREEZE-M DEB (TANK) 4.3 04:34:26 29° SSE 04:34:26 29° SSE 04:39:01 10° SE
Cosmos 1455 2.8 04:33:30 49° ESE 04:33:52 51° E 04:37:40 10° NNE
NOSS 3-3 (A) 4.4 04:32:48 10° NNW 04:40:22 87° WSW 04:48:21 10° SSE
NOSS 3-3 (C) 4.4 04:32:54 10° NNW 04:40:29 88° WSW 04:48:29 10° SSE
SL-16 R/B 4.3 04:41:56 12° NW 04:42:28 12° NW 04:44:36 10° NNW
NOSS 3-2 (C) 3.8 04:42:57 42° W 04:44:34 53° NW 04:51:02 10° NNE
Cosmos 1709 Rocket 3.9 04:38:33 10° N 04:44:56 84° W 04:50:07 16° S
CZ-4B R/B 3.8 04:45:35 10° NNE 04:49:02 41° E 04:50:41 25° SSE
Cosmos 1862 Rocket 3.9 04:47:13 31° SSE 04:49:06 61° E 04:53:26 10° NNE
MOS 1-B 4.4 04:46:12 10° N 04:51:52 58° WNW 04:53:44 40° SW
Cosmos 839 Rocket 4.2 04:45:56 10° NNW 04:53:53 73° WSW 05:00:20 10° SSE
Cosmos 2263 4.5 04:48:20 10° NNW 04:54:08 71° ENE 04:59:53 10° SSE
CENTAUR R/B 3.2 04:50:51 20° S 04:54:49 48° ESE 05:01:08 10° NE
Cosmos 1943 Rocket 3.2 04:56:10 10° N 05:01:38 47° ENE 05:07:02 10° SE
ADEOS Rocket 4.5 04:55:13 10° NNE 05:02:38 48° E 05:10:00 10° S
Cosmos 724 4.4 05:04:21 34° SW 05:06:52 62° WNW 05:12:49 10° NNE
UNKNOWN OBJECT B 4.0 05:03:59 10° NNW 05:06:33 25° NW 05:06:33 25° NW
Cosmos 1869 3.2 05:06:12 39° SSW 05:07:36 77° W 05:11:36 10° N
Cosmos 389 Rocket 2.5 05:08:00 32° S 05:09:26 74° E 05:12:55 10° NNE
ARGOS Delta rocket 3.8 05:06:37 10° N 05:10:55 52° WNW 05:12:24 35° SW
Resurs 1-4 Rocket 3.2 05:08:18 10° NNW 05:12:30 25° WNW 05:13:28 23° W
ATLAS CENTAUR R/B 1.1 05:10:03 10° NW 05:14:19 74° WSW 05:18:10 10° SSE
Cosmos 1302 Rocket 3.9 05:12:03 10° NNW 05:17:16 68° WSW 05:22:26 10° S
Cosmos 1825 3.5 05:13:40 10° N 05:17:17 41° E 05:20:52 10° SSE
Atlas Centaur 2 4.1 05:16:29 10° SSE 05:18:14 12° SSE 05:20:07 10° SE
Cosmos 1733 Rocket 3.1 05:15:43 10° NNW 05:20:01 58° W 05:24:10 11° S
ARIANE 5 R/B 4.3 05:22:30 10° NNW 05:25:17 15° WNW 05:26:14 14° WNW
Cosmos 1408 3.2 05:25:14 10° N 05:28:56 58° E 05:32:37 10° SSE
BREEZE-M DEB (TANK) 4.2 05:24:56 10° NW 05:29:01 82° NE 05:40:40 10° SE
NAVSTAR 52 R/B(PAM-D 3.8 05:29:31 41° E 05:29:31 41° E 05:30:44 10° E
CZ-4C R/B 4.4 05:27:49 10° NW 05:30:06 12° NNW 05:32:30 10° N
ATLAS 5 CENTAUR R/B 2.0 05:27:26 24° SW 05:30:10 56° NW 05:35:16 10° NNE
ADEOS II 2.6 05:27:30 10° NNE 05:32:43 62° E 05:37:54 10° S
Cosmos 2221 Rocket 4.0 05:28:38 10° S 05:33:02 65° E 05:37:26 10° NNE
Okean-O 2.9 05:28:43 10° NNE 05:33:09 68° ESE 05:37:33 10° S
Okean O Rocket 2.3 05:29:26 10° N 05:33:30 35° WNW 05:35:51 21° WSW
Cosmos 1892 4.1 05:35:10 10° NW 05:37:55 19° W 05:37:56 19° W
CZ-2C R/B 4.2 05:34:34 10° SSW 05:38:42 36° W 05:42:48 10° NNW
PSLV R/B 4.2 05:39:06 16° WNW 05:41:36 43° N 05:44:51 10° ENE
MOZ.5/SAFIR/RUBIN 5/SL-8 4.5 05:39:28 10° SSW 05:43:35 31° W 05:47:44 10° NNW
Cosmos 1908 Rocket 3.5 05:41:23 10° NNW 05:45:46 70° W 05:50:05 10° S
COSMOS 2406 3.3 05:40:19 10° SSW 05:46:05 88° WNW 05:51:53 10° NNE
Geosat 4.2 05:41:17 10° NNE 05:46:13 57° WNW 05:50:54 11° SW
Thor Agena Rocket 3.6 05:41:40 10° S 05:46:40 57° WSW 05:51:46 10° NNW
Cosmos 1184 Rocket 3.8 05:44:57 10° NNW 05:47:58 29° W 05:50:57 10° SSW
SL-16 R/B 4.1 05:48:06 13° W 05:48:26 13° W 05:50:58 10° WNW
BREEZE-M DEB (TANK) 3.1 05:46:48 10° NW 05:48:56 43° NE 05:52:02 10° ESE
Sich 1 Rocket 3.7 05:44:50 10° NNW 05:49:05 50° W 05:53:19 10° SSW
SeaSat 1 3.6 05:50:59 10° SSW 05:54:35 20° WSW 05:58:12 10° WNW
OAO 3 Copernicus 4.4 05:52:37 12° W 05:57:11 60° S 06:02:09 10° ESE
Cosmos 1190 Rocket 4.2 05:54:21 10° S 05:59:31 75° ESE 06:04:43 10° NNE
Cosmos 1174 4.5 05:54:04 10° SSW 05:59:58 80° WNW 06:04:38 10° NNE
USA 32 4.1 05:55:33 10° SSW 06:00:41 56° W 06:05:50 10° N
Cosmos 1703 Rocket 3.8 05:56:33 10° SSW 06:00:54 52° W 06:05:18 10° N
CZ-4B R/B 4.2 06:04:18 10° NNW 06:08:38 26° WNW 06:12:57 10° WSW
SL-27 R/B 3.6 06:07:03 10° SW 06:10:15 28° WNW 06:13:27 10° N
Cosmos 2369 Rocket 3.6 06:07:08 10° WNW 06:10:33 17° W 06:14:00 10° SW
Cosmos 1992 Rocket 4.0 06:11:19 10° NNW 06:16:30 65° WSW 06:21:39 10° S
